Change the Weather History Date:

Thursday, September 19, 2013

  Actual Average Record
Temperature  
Mean Temperature 49 °F 57 °F  
Max Temperature 60 °F 71 °F 91 °F (1937)
Min Temperature 38 °F 42 °F 25 °F (1965)
Degree Days  
Heating Degree Days 16 9  
Month to date heating degree days 27 111  
Since 1 July heating degree days 27 168  
Cooling Degree Days 0 1  
Month to date cooling degree days 88 37  
Year to date cooling degree days 610 497  
Moisture  
Dew Point 38 °F    
Average Humidity 68    
Maximum Humidity 96    
Minimum Humidity 40    
Precipitation  
Precipitation 0.00 in 0.04 in 0.56 in (1990)
Month to date precipitation 1.06 0.67  
Year to date precipitation 14.49 11.15  
Sea Level Pressure  
Sea Level Pressure 30.09 in    
Wind  
Wind Speed 11 mph (WNW)    
Max Wind Speed 25 mph    
Max Gust Speed 39 mph    
Visibility 10 miles    
Events      
T = Trace of Precipitation, MM = Missing Value Source: NWS Daily Summary

Daily Weather History Graph

Daily Weather History Graph

Search for Another Location

Airport or City:

Trip Planner

Search our weather history database for the weather conditions in past years. The results will help you decide how hot, cold, wet, or windy it might be!

Date:

Astronomy

Sep. 19, 2013 Rise Set
Actual Time 6:46 AM MDT 7:04 PM MDT
Civil Twilight 6:17 AM MDT 7:33 PM MDT
Nautical Twilight 5:42 AM MDT 8:07 PM MDT
Astronomical Twilight 5:07 AM MDT 8:42 PM MDT
Moon 7:01 PM MDT (9/19) 7:00 AM MDT (9/19)
Length of Visible Light 13h 16m
Length of Day
12h 18m
Full, 100% of the Moon is Illuminated
Sep 19
Full
Sep 26
Last Quarter
Oct 4
New
Oct 11
First Quarter
Oct 18
Full

Hourly Weather History & Observations

Time (MDT) Temp. Windchill Dew Point Humidity Pressure Visibility Wind Dir Wind Speed Gust Speed Precip Events Conditions
12:53 AM 45.0 °F 42.6 °F 41.0 °F 86% 29.89 in 10.0 mi WNW 4.6 mph - N/A   Clear
1:53 AM 44.1 °F 40.1 °F 41.0 °F 89% 29.98 in 10.0 mi West 6.9 mph - N/A   Clear
2:53 AM 43.0 °F 38.2 °F 41.0 °F 93% 29.98 in 10.0 mi West 8.1 mph - N/A   Clear
3:53 AM 43.0 °F 37.7 °F 39.9 °F 89% 29.98 in 10.0 mi WNW 9.2 mph - N/A   Clear
4:53 AM 42.1 °F 35.7 °F 39.0 °F 89% 30.00 in 10.0 mi West 11.5 mph - N/A   Clear
5:53 AM 45.0 °F 39.3 °F 39.0 °F 80% 30.01 in 10.0 mi WNW 11.5 mph - N/A   Clear
6:53 AM 39.0 °F 35.7 °F 36.0 °F 89% 30.08 in 10.0 mi West 4.6 mph - N/A   Clear
7:53 AM 46.0 °F 41.9 °F 39.9 °F 79% 30.08 in 10.0 mi NNW 8.1 mph - N/A   Clear
8:53 AM 48.9 °F - 39.0 °F 69% 30.10 in 10.0 mi NNW 18.4 mph - N/A   Clear
9:53 AM 51.1 °F - 37.9 °F 61% 30.11 in 10.0 mi NNW 19.6 mph - N/A   Clear
10:53 AM 53.1 °F - 37.9 °F 57% 30.12 in 10.0 mi NNW 19.6 mph - N/A   Partly Cloudy
11:53 AM 55.0 °F - 39.0 °F 55% 30.13 in 10.0 mi NW 19.6 mph 26.5 mph N/A   Scattered Clouds
12:53 PM 55.9 °F - 39.0 °F 53% 30.12 in 10.0 mi NNW 20.7 mph 28.8 mph N/A   Scattered Clouds
1:53 PM 55.9 °F - 37.0 °F 49% 30.13 in 10.0 mi WNW 20.7 mph 27.6 mph N/A   Partly Cloudy
2:53 PM 59.0 °F - 36.0 °F 42% 30.11 in 10.0 mi NW 21.9 mph 27.6 mph N/A   Scattered Clouds
3:53 PM 57.9 °F - 35.1 °F 42% 30.10 in 10.0 mi WNW 17.3 mph 24.2 mph N/A   Clear
4:53 PM 59.0 °F - 36.0 °F 42% 30.10 in 10.0 mi NW 13.8 mph 23.0 mph N/A   Clear
5:53 PM 57.0 °F - 36.0 °F 45% 30.11 in 10.0 mi NNW 9.2 mph 19.6 mph N/A   Clear
6:53 PM 52.0 °F - 36.0 °F 54% 30.14 in 10.0 mi NNW 6.9 mph - N/A   Clear
7:53 PM 44.1 °F 40.8 °F 37.0 °F 76% 30.16 in 10.0 mi WNW 5.8 mph - N/A   Clear
8:53 PM 42.1 °F 40.2 °F 37.0 °F 82% 30.17 in 10.0 mi SW 3.5 mph - N/A   Clear
9:53 PM 39.0 °F 36.8 °F 36.0 °F 89% 30.17 in 10.0 mi SSW 3.5 mph - N/A   Clear
10:53 PM 41.0 °F 37.1 °F 37.0 °F 86% 30.17 in 10.0 mi South 5.8 mph - N/A   Clear
11:53 PM 43.0 °F 40.3 °F 37.0 °F 80% 30.15 in 10.0 mi South 4.6 mph - N/A   Clear